Back to catalog

CZ-6A DEB

AliveSSO
NORAD 54449·DEBRIS·🇨🇳 China

Launched Nov 11, 2022 from Taiyuan Satellite Launch Center

Loading…

Next Passes (next 24 hours)

TLE

FreshSource: Space-Track

Epoch: Sep 14, 2026, 09:30 UTC

1 54449U 22151FZ  26257.39597060  .00000163  00000-0  14671-3 0  9990
2 54449  98.9902 230.3603 0131943 190.7215 169.1127 13.93260253194856

Track CZ-6A DEB in real time with AllMySat

Download on the App Store